Waarnemingen

Advertentie
Mijn weer
Maastricht, Nederland (6380): temperatuur & dauwpunt: 19.02.2018 02:00:00 - 25.02.2018 02:00:00 (CET)Maastricht, Nederland (6380): temperatuur 5cm: 19.02.2018 02:00:00 - 25.02.2018 02:00:00 (CET)Maastricht, Nederland (6380): windsnelheid & windstoten: 19.02.2018 02:00:00 - 25.02.2018 02:00:00 (CET)Maastricht, Nederland (6380): windrichting: 19.02.2018 02:00:00 - 25.02.2018 02:00:00 (CET)Maastricht, Nederland (6380): luchtdruk: 19.02.2018 02:00:00 - 25.02.2018 02:00:00 (CET)Maastricht, Nederland (6380): zicht: 19.02.2018 02:00:00 - 25.02.2018 02:00:00 (CET)Maastricht, Nederland (6380): neerslag: 19.02.2018 02:00:00 - 25.02.2018 02:00:00 (CET)
Datum & Tijd tt [°C] td [°C] tt 5cm [°C] ff [km/u] ff [kn] fx [km/u] fx [kn] dd ppp [hPa] vv [km] rr [mm]
25.02.2018 02:00:00 -3,0 -10,7 -4,3 21 11 36 19 ONO 1026,2 10 0,0
25.02.2018 01:00:00 -2,5 -10,2 -3,7 22 12 36 19 ONO 1026,0 10 0,0
25.02.2018 00:00:00 -1,9 -10,1 -3,0 24 13 43 23 ONO 1025,7 10 0,0
24.02.2018 23:00:00 -1,4 -8,5 -2,8 24 13 36 19 ONO 1025,7 10 0,0
24.02.2018 22:00:00 -1,3 -8,6 -2,5 24 13 32 18 ONO 1025,4 10 0,0
24.02.2018 21:00:00 -1,3 -7,2 -2,4 18 10 36 19 NO 1025,2 10 0,0
24.02.2018 20:00:00 -0,3 -7,5 -1,4 26 14 43 23 ONO 1024,8 10 0,0
24.02.2018 19:00:00 0,3 -7,4 -0,5 29 16 47 25 ONO 1024,4 10 0,0
24.02.2018 18:00:00 0,9 -5,6 -0,2 26 14 47 25 NO 1023,7 10 0,0
24.02.2018 17:00:00 2,2 -5,7 1,8 34 18 50 27 NO 1023,3 10 0,0
24.02.2018 16:00:00 4,2 -6,7 4,3 35 19 50 27 NO 1022,7 10 0,0
24.02.2018 15:00:00 5,2 -7,8 5,5 29 16 50 27 ONO 1022,7 10 0,0
24.02.2018 14:00:00 4,2 -9,1 5,0 37 20 58 31 ONO 1022,7 10 0,0
24.02.2018 13:00:00 4,3 -8,7 5,4 34 18 47 25 O 1023,0 10 0,0
24.02.2018 12:00:00 2,2 -10,4 3,3 34 18 47 25 ONO 1023,5 10 0,0
24.02.2018 11:00:00 0,5 -12,3 1,5 31 17 47 25 O 1023,3 10 0,0
24.02.2018 10:00:00 -1,2 -11,3 -1,0 31 17 43 23 ONO 1023,2 10 0,0
24.02.2018 09:00:00 -2,9 -11,1 -3,3 29 16 43 23 ONO 1022,7 10 0,0
24.02.2018 08:00:00 -4,5 -10,5 -5,3 29 16 40 21 ONO 1022,4 10 0,0
24.02.2018 07:00:00 -4,8 -10,3 -5,6 28 15 40 21 ONO 1021,8 10 0,0
24.02.2018 06:00:00 -4,4 -11,2 -5,2 28 15 40 21 ONO 1021,4 10 0,0
24.02.2018 05:00:00 -3,9 -11,2 -4,8 26 14 36 19 ONO 1021,4 10 0,0
24.02.2018 04:00:00 -3,6 -10,8 -4,5 24 13 36 19 O 1021,0 10 0,0
24.02.2018 03:00:00 -3,3 -10,7 -4,2 24 13 32 18 ONO 1021,1 10 0,0
24.02.2018 02:00:00 -3,2 -10,8 -4,6 18 10 32 18 ONO 1021,0 10 0,0
24.02.2018 01:00:00 -2,6 -10,1 -3,7 28 15 36 19 ONO 1020,5 10 0,0
24.02.2018 00:00:00 -2,4 -8,4 -3,7 26 14 32 18 ONO 1020,4 10 0,0
23.02.2018 23:00:00 -2,1 -7,4 -3,3 26 14 32 18 ONO 1020,2 10 0,0
23.02.2018 22:00:00 -1,6 -7,5 -2,9 29 16 36 19 ONO 1020,6 10 0,0
23.02.2018 21:00:00 -1,1 -7,4 -2,4 24 13 36 19 NO 1020,2 10 0,0
23.02.2018 20:00:00 -0,7 -7,5 -2,1 22 12 32 18 NO 1020,3 10 0,0
23.02.2018 19:00:00 -0,3 -7,7 -1,6 26 14 36 19 NO 1020,2 10 0,0
23.02.2018 18:00:00 0,7 -7,6 -0,7 21 11 36 19 NO 1019,9 10 0,0
23.02.2018 17:00:00 2,0 -7,7 1,5 28 15 40 21 NO 1019,7 10 0,0
23.02.2018 16:00:00 2,8 -7,9 3,0 29 16 43 23 ONO 1019,7 10 0,0
23.02.2018 15:00:00 2,5 -8,4 3,2 31 17 43 23 ONO 1020,1 10 0,0
23.02.2018 14:00:00 2,3 -8,1 3,2 28 15 43 23 ONO 1020,7 10 0,0
23.02.2018 13:00:00 1,5 -8,4 3,1 31 17 43 23 ONO 1021,4 10 0,0
23.02.2018 12:00:00 0,9 -7,2 2,4 24 13 47 25 ONO 1021,6 10 0,0
23.02.2018 11:00:00 0,1 -8,2 1,2 28 15 43 23 O 1021,8 10 0,0
23.02.2018 10:00:00 -0,7 -5,5 -0,3 24 13 32 18 ONO 1021,8 10 0,0
23.02.2018 09:00:00 -2,1 -5,4 -2,6 16 9 25 14 NO 1022,0 10 0,0
23.02.2018 08:00:00 -3,6 -5,8 -4,7 16 9 22 12 NO 1021,8 10 0,0
23.02.2018 07:00:00 -3,4 -5,7 -4,7 16 9 25 14 NO 1021,6 10 0,0
23.02.2018 06:00:00 -3,4 -5,7 -4,6 18 10 25 14 NO 1021,4 10 0,0
23.02.2018 05:00:00 -3,5 -5,6 -4,7 18 10 25 14 NO 1021,4 10 0,0
23.02.2018 04:00:00 -3,7 -6,2 -5,0 15 8 25 14 NNO 1021,6 10 0,0
23.02.2018 03:00:00 -3,1 -6,5 -4,5 18 10 22 12 NO 1021,6 10 0,0
23.02.2018 02:00:00 -3,2 -6,6 -4,5 16 9 25 14 NO 1022,0 10 0,0
23.02.2018 01:00:00 -2,6 -6,2 -3,9 18 10 25 14 NO 1022,1 10 0,0
23.02.2018 00:00:00 -1,9 -5,8 -3,2 18 10 32 18 NO 1022,2 10 0,0
22.02.2018 23:00:00 -1,3 -5,5 -2,3 22 12 36 19 ONO 1022,3 10 0,0
22.02.2018 22:00:00 -0,8 -5,0 -2,0 26 14 36 19 NO 1022,2 10 0,0
22.02.2018 21:00:00 -0,2 -5,0 -1,3 28 15 40 21 NO 1022,1 10 0,0
22.02.2018 20:00:00 0,3 -5,1 -1,0 24 13 36 19 NO 1022,2 10 0,0
22.02.2018 19:00:00 1,0 -5,5 -0,4 22 12 36 19 NO 1021,7 10 0,0
22.02.2018 18:00:00 1,7 -5,6 0,3 24 13 40 21 NO 1021,2 10 0,0
22.02.2018 17:00:00 3,0 -5,5 2,3 24 13 40 21 NO 1021,3 10 0,0
22.02.2018 16:00:00 3,6 -6,0 3,6 26 14 43 23 NO 1021,3 10 0,0
22.02.2018 15:00:00 3,9 -5,6 4,6 29 16 40 21 NO 1021,9 10 0,0
22.02.2018 14:00:00 3,8 -5,6 4,7 31 17 43 23 NO 1022,6 10 0,0
22.02.2018 13:00:00 3,6 -4,5 5,0 26 14 36 19 NO 1023,1 10 0,0
22.02.2018 12:00:00 2,3 -4,3 3,8 24 13 36 19 ONO 1023,6 10 0,0
22.02.2018 11:00:00 1,1 -4,1 2,0 21 11 32 18 ONO 1023,8 10 0,0
22.02.2018 10:00:00 -0,3 -3,9 0,1 18 10 29 16 NO 1023,8 10 0,0
22.02.2018 09:00:00 -1,7 -4,5 -2,1 18 10 32 18 NO 1023,8 10 0,0
22.02.2018 08:00:00 -2,7 -5,2 -3,7 21 11 32 18 NO 1023,4 10 0,0
22.02.2018 07:00:00 -2,9 -5,3 -4,0 18 10 29 16 NO 1023,2 10 0,0
22.02.2018 06:00:00 -2,7 -5,2 -4,0 18 10 22 12 NO 1023,0 10 0,0
22.02.2018 05:00:00 -3,0 -5,1 -4,1 15 8 22 12 NO 1022,6 9 0,0
22.02.2018 04:00:00 -2,6 -4,8 -3,9 15 8 22 12 NO 1022,8 9 0,0
22.02.2018 03:00:00 -2,6 -4,7 -3,8 16 9 22 12 NO 1023,1 8 0,0
22.02.2018 02:00:00 -2,5 -4,7 -3,7 15 8 25 14 NO 1023,3 8 0,0
22.02.2018 01:00:00 -2,8 -4,9 -4,1 15 8 22 12 NO 1023,7 8 0,0
22.02.2018 00:00:00 -2,7 -4,9 -4,1 15 8 22 12 NO 1023,7 9 0,0
21.02.2018 23:00:00 -2,3 -4,8 -3,7 15 8 22 12 NNO 1023,9 9 0,0
21.02.2018 22:00:00 -1,5 -4,6 -2,9 13 7 25 14 NNO 1024,1 10 0,0
21.02.2018 21:00:00 -1,0 -4,5 -2,5 16 9 25 14 NNO 1024,0 10 0,0
21.02.2018 20:00:00 0,0 -4,4 -1,5 16 9 25 14 NNO 1023,9 10 0,0
21.02.2018 19:00:00 0,2 -4,5 -1,5 15 8 25 14 NNO 1024,0 10 0,0
21.02.2018 18:00:00 1,0 -4,3 -0,9 15 8 29 16 NNO 1023,8 10 0,0
21.02.2018 17:00:00 3,1 -3,9 2,4 22 12 29 16 NNO 1023,6 10 0,0
21.02.2018 16:00:00 3,8 -3,7 4,1 21 11 29 16 NNO 1023,7 10 0,0
21.02.2018 15:00:00 4,1 -3,1 5,1 16 9 29 16 NNO 1024,1 10 0,0
21.02.2018 14:00:00 4,4 -2,8 4,9 21 11 29 16 NNO 1024,8 9 0,0
21.02.2018 13:00:00 3,8 -3,0 5,2 18 10 29 16 NNO 1025,1 8 0,0
21.02.2018 12:00:00 3,0 -2,9 4,3 16 9 29 16 NO 1025,2 7 0,0
21.02.2018 11:00:00 1,5 -2,4 2,5 15 8 22 12 NO 1025,2 6 0,0
21.02.2018 10:00:00 0,1 -2,9 0,2 11 6 25 14 NO 1025,2 5 0,0
21.02.2018 09:00:00 -1,9 -3,6 -2,7 8 4 14 8 NO 1025,2 4,1 0,0
21.02.2018 08:00:00 -4,2 -5,4 -5,6 11 6 18 10 NNO 1025,0 4,3 0,0
21.02.2018 07:00:00 -4,2 -5,3 -5,4 9 5 14 8 ONO 1024,5 4,9 0,0
21.02.2018 06:00:00 -3,0 -4,7 -4,3 9 5 25 14 NO 1024,2 4,7 0,0
21.02.2018 05:00:00 -2,5 -4,3 -3,3 15 8 25 14 NNO 1024,2 5 0,0
21.02.2018 04:00:00 -1,9 -4,2 -2,8 21 11 25 14 NNO 1023,6 5 0,0
21.02.2018 03:00:00 -2,8 -4,4 -4,9 11 6 18 10 NO 1023,2 5 0,0
21.02.2018 02:00:00 -2,1 -4,1 -3,2 15 8 25 14 NNO 1023,1 6 0,0
21.02.2018 01:00:00 -0,7 -3,4 -2,2 18 10 25 14 NNO 1023,1 7 0,0
21.02.2018 00:00:00 -1,8 -3,9 -3,5 13 7 22 12 NNO 1022,3 7 0,0
20.02.2018 23:00:00 -0,7 -3,2 -2,1 15 8 22 12 NO 1021,6 8 0,0
20.02.2018 22:00:00 -0,3 -3,0 -1,9 16 9 25 14 NNO 1021,4 9 0,0
20.02.2018 21:00:00 -0,6 -3,1 -2,1 13 7 22 12 NO 1020,9 9 0,0
20.02.2018 20:00:00 1,2 -2,4 -0,4 16 9 25 14 NO 1020,4 10 0,0
20.02.2018 19:00:00 2,0 -1,5 0,7 11 6 18 10 NNO 1019,7 9 0,0
20.02.2018 18:00:00 2,9 -1,0 1,6 8 4 14 8 N 1019,2 10 0,0
20.02.2018 17:00:00 3,5 -1,7 3,0 9 5 14 8 NNO 1018,7 10 0,0
20.02.2018 16:00:00 4,3 -1,4 4,8 13 7 18 10 NNO 1018,1 9 0,0
20.02.2018 15:00:00 4,3 -0,5 5,8 11 6 18 10 NNW 1018,3 8 0,0
20.02.2018 14:00:00 4,4 -1,6 5,4 5 3 14 8 N 1018,6 9 0,0
20.02.2018 13:00:00 4,1 -1,6 5,5 9 5 14 8 ONO 1018,4 9 0,0
20.02.2018 12:00:00 4,4 -0,3 7,2 4 2 11 6 - 1018,7 9 0,0
20.02.2018 11:00:00 2,6 -1,0 3,8 4 2 7 4 - 1018,5 8 0,0
20.02.2018 10:00:00 1,6 -1,2 1,7 5 3 11 6 O 1018,4 8 0,0
20.02.2018 09:00:00 0,3 -1,6 0,0 8 4 11 6 O 1018,2 7 0,0
20.02.2018 08:00:00 -0,3 -2,1 -1,0 9 5 14 8 O 1018,0 8 0,0
20.02.2018 07:00:00 -0,5 -2,4 -1,7 8 4 11 6 NO 1017,9 8 0,0
20.02.2018 06:00:00 -0,5 -2,1 -2,2 8 4 11 6 NO 1017,9 8 0,0
20.02.2018 05:00:00 -1,3 -2,8 -2,6 9 5 11 6 NO 1017,9 8 0,0
20.02.2018 04:00:00 0,4 -1,7 -1,6 5 3 7 4 NNW 1017,7 9 0,0
20.02.2018 03:00:00 1,0 -1,8 -0,8 5 3 7 4 O 1017,4 10 0,0
20.02.2018 02:00:00 0,8 -1,8 -0,4 4 2 7 4 O 1017,3 10 0,0
20.02.2018 01:00:00 1,1 -1,8 -0,1 5 3 7 4 O 1017,4 10 0,0
20.02.2018 00:00:00 1,3 -1,4 -0,5 4 2 7 4 O 1017,7 10 0,0
19.02.2018 23:00:00 1,6 -1,6 -0,4 5 3 7 4 OZO 1017,6 10 0,0
19.02.2018 22:00:00 1,9 -1,9 0,2 5 3 11 6 OZO 1017,8 10 0,0
19.02.2018 21:00:00 1,9 -1,8 0,5 8 4 7 4 ZO 1018,0 10 0,0
19.02.2018 20:00:00 1,9 -1,9 0,1 4 2 4 2 OZO 1018,1 10 0,0
19.02.2018 19:00:00 2,0 -2,0 0,3 4 2 7 4 ZZO 1018,1 10 0,0
19.02.2018 18:00:00 2,6 -2,3 1,7 5 3 11 6 Z 1017,9 10 0,0
19.02.2018 17:00:00 3,3 -2,6 3,1 8 4 11 6 ZZW 1018,1 10 0,0
19.02.2018 16:00:00 3,8 -1,9 4,4 8 4 14 8 Z 1018,6 10 0,0
19.02.2018 15:00:00 3,5 -2,0 4,6 9 5 14 8 ZZW 1018,9 10 0,0
19.02.2018 14:00:00 3,0 -1,8 3,7 11 6 18 10 ZZW 1019,3 15 0,0
19.02.2018 13:00:00 2,3 -2,4 3,1 13 7 32 18 ZZW 1019,8 10 0,0
19.02.2018 12:00:00 1,7 -1,8 2,1 15 8 18 10 ZZW 1020,1 10 0,0
19.02.2018 11:00:00 0,6 -2,2 0,6 9 5 14 8 ZZW 1020,4 10 0,0
19.02.2018 10:00:00 -0,3 -2,8 -0,3 11 6 14 8 ZZW 1020,5 9 0,0
19.02.2018 09:00:00 -1,0 -3,1 -1,5 11 6 14 8 Z 1020,9 9 0,0
19.02.2018 08:00:00 -1,6 -3,4 -2,5 8 4 11 6 ZZW 1021,4 8 0,0
19.02.2018 07:00:00 -1,6 -3,4 -2,9 5 3 7 4 Z 1021,1 9 0,0
19.02.2018 06:00:00 -1,9 -3,0 -4,2 5 3 7 4 Z 1021,3 10 0,0
19.02.2018 05:00:00 -2,4 -3,1 -5,6 4 2 7 4 ZZO 1021,7 9 0,0
19.02.2018 04:00:00 -1,8 -3,3 -6,2 4 2 11 6 Z 1022,1 10 0,0
19.02.2018 03:00:00 -1,6 -3,5 -4,8 8 4 11 6 ZO 1022,4 9 0,0
19.02.2018 02:00:00 -1,9 -3,7 -4,4 5 3 14 8 OZO 1022,9 9 0,0

tt = temperatuur
td = dauwpunt
tt 5cm = temperatuur 5cm
ff = windsnelheid
fx = windstoten
dd = windrichting
ppp = luchtdruk
vv = zicht
rr = neerslag

Weerstations in de omgeving